TimeCET,TemperatureF,Dew PointF,Humidity,Sea Level PressureIn,VisibilityMPH,Wind Direction,Wind SpeedMPH,Gust SpeedMPH,PrecipitationIn,Events,Conditions,WindDirDegrees,DateUTC
12:00 AM,24.8,19.4,80,29.98,6.2,WNW,11.5,-,N/A,,Overcast,290,2012-12-06 23:00:00
3:00 AM,21.2,17.6,86,29.95,-9999.0,WSW,4.6,-,N/A,,Clear,250,2012-12-07 02:00:00
5:00 AM,21.2,17.6,86,29.95,-9999.0,WSW,2.3,-,N/A,,Clear,240,2012-12-07 04:00:00
6:00 AM,21.2,17.6,86,29.95,6.2,WSW,5.8,-,N/A,,Mostly Cloudy,250,2012-12-07 05:00:00
7:00 AM,19.4,17.6,93,29.95,6.2,SSW,1.2,-,N/A,,Mostly Cloudy,200,2012-12-07 06:00:00
8:00 AM,19.4,17.6,93,29.92,6.2,SSE,5.8,-,N/A,,Scattered Clouds,150,2012-12-07 07:00:00
9:00 AM,19.4,17.6,93,29.92,6.2,SSE,4.6,-,N/A,,Scattered Clouds,150,2012-12-07 08:00:00
10:00 AM,23.0,19.4,86,29.92,6.2,SE,4.6,-,N/A,,Partly Cloudy,130,2012-12-07 09:00:00
11:00 AM,24.8,19.4,80,29.92,-9999.0,SE,5.8,-,N/A,,Clear,140,2012-12-07 10:00:00
12:00 PM,26.6,21.2,80,29.89,-9999.0,SE,5.8,-,N/A,,Clear,140,2012-12-07 11:00:00
1:00 PM,26.6,19.4,74,29.86,-9999.0,SE,6.9,-,N/A,,Clear,140,2012-12-07 12:00:00
2:00 PM,28.4,19.4,69,29.83,-9999.0,SE,5.8,-,N/A,,Clear,130,2012-12-07 13:00:00
3:00 PM,26.6,19.4,74,29.83,-9999.0,East,5.8,-,N/A,,Clear,80,2012-12-07 14:00:00
4:00 PM,24.8,19.4,80,29.83,-9999.0,East,4.6,-,N/A,,Clear,80,2012-12-07 15:00:00
5:00 PM,21.2,19.4,93,29.83,-9999.0,East,2.3,-,N/A,,Clear,90,2012-12-07 16:00:00
6:00 PM,23.0,17.6,80,29.83,-9999.0,ESE,3.5,-,N/A,,Clear,110,2012-12-07 17:00:00
7:00 PM,19.4,17.6,93,29.83,-9999.0,East,4.6,-,N/A,,Clear,90,2012-12-07 18:00:00
8:00 PM,19.4,15.8,86,29.86,-9999.0,Calm,Calm,-,N/A,,Clear,0,2012-12-07 19:00:00
9:00 PM,17.6,15.8,93,29.86,-9999.0,Variable,1.2,-,N/A,,Clear,0,2012-12-07 20:00:00
10:00 PM,15.8,14.0,93,29.86,-9999.0,Variable,2.3,-,N/A,,Clear,0,2012-12-07 21:00:00
11:00 PM,14.0,12.2,93,29.89,-9999.0,Variable,1.2,-,N/A,,Clear,0,2012-12-07 22:00:00